TimePDT,TemperatureF,Dew PointF,Humidity,Sea Level PressureIn,VisibilityMPH,Wind Direction,Wind SpeedMPH,Gust SpeedMPH,PrecipitationIn,Events,Conditions,WindDirDegrees,DateUTC
12:53 AM,45.0,30.0,56,29.91,10.0,Calm,Calm,-,N/A,,Clear,0,2012-10-11 07:53:00
1:53 AM,46.9,34.0,61,29.92,10.0,Calm,Calm,-,N/A,,Clear,0,2012-10-11 08:53:00
2:53 AM,45.0,30.9,58,29.93,10.0,Calm,Calm,-,N/A,,Clear,0,2012-10-11 09:53:00
3:53 AM,41.0,30.0,65,29.94,10.0,NNE,3.5,-,N/A,,Clear,20,2012-10-11 10:53:00
4:53 AM,44.1,36.0,73,29.94,10.0,ENE,4.6,-,N/A,,Clear,60,2012-10-11 11:53:00
5:53 AM,43.0,36.0,76,29.96,10.0,ENE,6.9,-,N/A,,Clear,60,2012-10-11 12:53:00
6:53 AM,44.1,37.0,76,29.97,10.0,ENE,5.8,-,N/A,,Clear,70,2012-10-11 13:53:00
7:53 AM,43.0,37.0,80,29.98,10.0,NNE,8.1,-,N/A,,Clear,30,2012-10-11 14:53:00
8:53 AM,48.0,39.0,71,30.00,10.0,ENE,8.1,-,N/A,,Clear,60,2012-10-11 15:53:00
9:53 AM,52.0,39.0,61,29.99,10.0,ENE,6.9,-,N/A,,Partly Cloudy,60,2012-10-11 16:53:00
10:53 AM,55.0,39.0,55,29.99,10.0,East,4.6,-,N/A,,Partly Cloudy,80,2012-10-11 17:53:00
11:53 AM,59.0,39.0,48,29.97,10.0,East,5.8,-,N/A,,Partly Cloudy,90,2012-10-11 18:53:00
12:53 PM,64.0,39.0,40,29.95,10.0,Variable,3.5,-,N/A,,Scattered Clouds,0,2012-10-11 19:53:00
1:53 PM,66.9,37.9,34,29.92,10.0,NNE,3.5,-,N/A,,Scattered Clouds,30,2012-10-11 20:53:00
2:53 PM,69.8,37.4,31,29.91,10.0,NNE,4.6,-,N/A,,Partly Cloudy,30,2012-10-11 21:53:00
3:53 PM,70.0,36.0,29,29.88,10.0,Calm,Calm,-,N/A,,Partly Cloudy,0,2012-10-11 22:53:00
4:53 PM,69.1,35.1,29,29.86,10.0,NE,3.5,-,N/A,,Partly Cloudy,40,2012-10-11 23:53:00
5:53 PM,66.2,33.8,30,29.85,10.0,NE,3.5,-,N/A,,Mostly Cloudy,40,2012-10-12 00:53:00
6:53 PM,63.0,35.1,35,29.83,10.0,Calm,Calm,-,N/A,,Scattered Clouds,0,2012-10-12 01:53:00
7:53 PM,57.9,34.0,41,29.83,10.0,Calm,Calm,-,N/A,,Partly Cloudy,0,2012-10-12 02:53:00
8:53 PM,48.9,30.9,50,29.83,10.0,Calm,Calm,-,N/A,,Partly Cloudy,0,2012-10-12 03:53:00
9:53 PM,46.0,32.0,58,29.82,10.0,Calm,Calm,-,N/A,,Clear,0,2012-10-12 04:53:00
10:53 PM,48.0,33.1,56,29.81,10.0,Calm,Calm,-,N/A,,Clear,0,2012-10-12 05:53:00
11:53 PM,51.1,34.0,52,29.80,10.0,SE,3.5,-,N/A,,Clear,130,2012-10-12 06:53:00